International Virtual Aviation Organisation

Russian Federation and Kazakhstan MCD

 

Карточка аэропорта UWUU

Внимание!
Информация на этой странице в стадии наполнения.
Если вы не увидели какой-то информации, или заметили неточность - пожалуйста сообщите нам!
Спасибо!
Команда RU-STAFF
Название аэропортаУфа
Название аэропорта (англ.)Ufa
Превышение449 ft. (136.9 m.)
Координаты54°33.6', 55°52.2'
Высота перехода5000ft
Эшелон переходаFL070
Коды ответчика6730-6731
Зона ОрВДСамара РПИ (UWWW)
Данные METARUWUU 302200Z 14003MPS CAVOK M01/M05 Q1026 R14R/0///60 NOSIG
Проноз погоды (TAF)UWUU 301958Z 3021/3121 16003G08MPS 9999 SCT040 TX07/3110Z TNM04/3103Z TEMPO 3100/3106 VRB01MPS 2100 -SN BR SCT004 TEMPO 3106/3121 18006MPS 6000 -SHRA BKN016CB
NOTAMshow/hide NOTAM
AWOS   TABLE

Информация о ВПП

ВПП Длина ВПП (м.) Покрытие Курс ВПП Частота ILS
14R3765Бетон138110.3
14L2516Асфальтобетон138108.3
32R2516Асфальтобетон318109.1
32L3765Бетон318 

Диспетчерские позиции

Позывной Наименование органа УВД Частота
UWUU_GNDУфа-Руление119.000
UWUU_TWRУфа-Старт120.900
UWUU_R_APPУфа-Круг124.000
UWUU_APPУфа-Подход126.000



Спутниковое изображение